Weather History for Belen, NM

Change the Weather History Date:

Wednesday, November 9, 2011

  Actual Average (KABQ) Record (KABQ)
Temperature  
Mean Temperature 38 °F 48 °F  
Max Temperature 50 °F 59 °F 75 °F (1980)
Min Temperature 25 °F 37 °F 19 °F (1936)
Degree Days  
Heating Degree Days 28 17  
Month to date heating degree days 140  
Since 1 July heating degree days 406  
Cooling Degree Days 0 0  
Month to date cooling degree days 0  
Year to date cooling degree days 1322  
Moisture  
Dew Point 21 °F    
Average Humidity 56    
Maximum Humidity 87    
Minimum Humidity 23    
Precipitation  
Precipitation 0.00 in 0.02 in 0.34 in (2002)
Month to date precipitation 0.18  
Year to date precipitation 8.56  
Snow  
Snow 0.00 in - - ()
Month to date snowfall  
Since 1 July snowfall  
Since 1 September snowfall  
Snow Depth -    
Sea Level Pressure  
Sea Level Pressure 30.41 in    
Wind  
Wind Speed 6 mph (North)    
Max Wind Speed 9 mph    
Max Gust Speed 9 mph    
Visibility 10 miles    
Events      
T = Trace of Precipitation, MM = Missing Value Source: NWS Daily Summary

Daily Weather History Graph

Daily Weather History Graph

Search for Another Location

Airport:

Trip Planner

Search our weather history database for the weather conditions in past years. The results will help you decide how hot, cold, wet, or windy it might be!

Date:

Astronomy

Nov. 09, 2011 Rise Set
Actual Time 6:35 AM MST 5:06 PM MST
Civil Twilight 6:08 AM MST 5:33 PM MST
Nautical Twilight 5:38 AM MST 6:03 PM MST
Astronomical Twilight 5:08 AM MST 6:32 PM MST
Moon 4:20 PM MST (11/9) 5:33 AM MST (11/9)
Length of Visible Light 11h 24m
Length of Day
10h 31m
Waxing Gibbous, 99% of the Moon is Illuminated
Nov 9
Waxing Gibbous
Nov 10
Full
Nov 18
Last Quarter
Nov 24
New
Dec 2
First Quarter

Hourly Weather History & Observations

Time (MST) Temp. Windchill Dew Point Humidity Pressure Visibility Wind Dir Wind Speed Gust Speed Precip Events Conditions
12:15 AM 29.8 °F 22.2 °F 22.6 °F 75% 30.32 in 10.0 mi NW 8.1 mph - N/A   Clear
12:35 AM 30.4 °F 23.6 °F 22.8 °F 73% 30.33 in 10.0 mi NNW 6.9 mph - N/A   Clear
12:55 AM 29.3 °F 23.2 °F 22.6 °F 76% 30.33 in 10.0 mi North 5.8 mph - N/A   Clear
1:15 AM 30.7 °F 22.6 °F 23.5 °F 75% 30.33 in 10.0 mi NNW 9.2 mph - N/A   Clear
1:35 AM 31.6 °F 23.7 °F 24.1 °F 74% 30.33 in 10.0 mi NW 9.2 mph - N/A   Clear
1:55 AM 31.1 °F 23.7 °F 23.9 °F 75% 30.34 in 10.0 mi NW 8.1 mph - N/A   Clear
2:15 AM 30.7 °F 24.9 °F 23.9 °F 76% 30.34 in 10.0 mi NW 5.8 mph - N/A   Clear
2:35 AM 29.3 °F - 23.2 °F 78% 30.35 in 10.0 mi Calm Calm - N/A   Clear
2:55 AM 29.7 °F 26.1 °F 23.4 °F 77% 30.35 in 10.0 mi North 3.5 mph - N/A   Clear
3:15 AM 29.3 °F 23.2 °F 22.8 °F 77% 30.35 in 10.0 mi NNW 5.8 mph - N/A   Clear
3:35 AM 28.0 °F 20.0 °F 22.5 °F 80% 30.36 in 10.0 mi NNW 8.1 mph - N/A   Clear
4:15 AM 26.6 °F 18.2 °F 22.1 °F 83% 30.36 in 10.0 mi NNW 8.1 mph - N/A   Clear
4:35 AM 27.0 °F 19.5 °F 22.6 °F 84% 30.37 in 10.0 mi NNW 6.9 mph - N/A   Clear
4:55 AM 27.5 °F 22.2 °F 23.0 °F 83% 30.38 in 10.0 mi NNW 4.6 mph - N/A   Clear
5:15 AM 27.5 °F 19.3 °F 22.8 °F 83% 30.38 in 10.0 mi NW 8.1 mph - N/A   Clear
5:35 AM 26.6 °F 19.1 °F 22.5 °F 84% 30.39 in 10.0 mi NNW 6.9 mph - N/A   Clear
5:55 AM 26.2 °F 18.6 °F 22.5 °F 86% 30.39 in 10.0 mi NNW 6.9 mph - N/A   Clear
6:15 AM 26.2 °F 18.6 °F 22.8 °F 87% 30.40 in 10.0 mi North 6.9 mph - N/A   Clear
6:35 AM 25.9 °F 19.2 °F 22.5 °F 87% 30.41 in 10.0 mi NNW 5.8 mph - N/A   Clear
6:55 AM 26.2 °F - 22.8 °F 87% 30.42 in 10.0 mi Calm Calm - N/A   Clear
7:15 AM 27.5 °F - 23.4 °F 84% 30.44 in 10.0 mi Calm Calm - N/A   Clear
7:35 AM 28.9 °F 23.9 °F 24.1 °F 82% 30.45 in 10.0 mi WNW 4.6 mph - N/A   Clear
7:55 AM 30.4 °F - 24.3 °F 78% 30.46 in 10.0 mi Calm Calm - N/A   Clear
8:15 AM 32.0 °F - 25.3 °F 76% 30.47 in 10.0 mi Calm Calm - N/A   Clear
8:35 AM 33.4 °F - 25.5 °F 73% 30.48 in 10.0 mi Calm Calm - N/A   Clear
8:55 AM 35.2 °F 32.4 °F 25.7 °F 68% 30.48 in 10.0 mi WNW 3.5 mph - N/A   Clear
9:15 AM 37.0 °F 32.4 °F 25.9 °F 64% 30.48 in 10.0 mi NW 5.8 mph - N/A   Clear
9:35 AM 38.7 °F 36.3 °F 26.1 °F 61% 30.48 in 10.0 mi North 3.5 mph - N/A   Clear
9:55 AM 40.3 °F - 26.1 °F 57% 30.49 in 10.0 mi Calm Calm - N/A   Clear
10:15 AM 41.4 °F 38.4 °F 26.2 °F 55% 30.49 in 10.0 mi NE 4.6 mph - N/A   Clear
10:35 AM 42.6 °F 39.9 °F 26.1 °F 52% 30.48 in 10.0 mi North 4.6 mph - N/A   Clear
11:15 AM 44.8 °F 41.0 °F 25.2 °F 46% 30.47 in 10.0 mi NNE 6.9 mph - N/A   Clear
11:35 AM 45.7 °F 42.7 °F 25.0 °F 44% 30.46 in 10.0 mi NNW 5.8 mph - N/A   Clear
11:55 AM 46.6 °F - 24.6 °F 42% 30.46 in 10.0 mi North 9.2 mph - N/A   Clear
12:15 PM 47.7 °F - 23.7 °F 39% 30.44 in 10.0 mi Calm Calm - N/A   Clear
12:35 PM 48.2 °F - 22.5 °F 36% 30.44 in 10.0 mi North 3.5 mph - N/A   Clear
12:55 PM 49.3 °F - 22.6 °F 35% 30.43 in 10.0 mi NNE 4.6 mph 9.2 mph N/A   Clear
1:15 PM 49.8 °F - 22.1 °F 34% 30.42 in 10.0 mi North 8.1 mph - N/A   Clear
1:35 PM 50.4 °F - 20.5 °F 31% 30.41 in 10.0 mi NE 8.1 mph - N/A   Clear
1:55 PM 50.7 °F - 19.8 °F 30% 30.41 in 10.0 mi NW 3.5 mph - N/A   Clear
2:15 PM 50.4 °F - 19.4 °F 30% 30.41 in 10.0 mi NE 5.8 mph - N/A   Clear
2:35 PM 50.9 °F - 19.2 °F 29% 30.41 in 10.0 mi NNE 6.9 mph - N/A   Clear
2:55 PM 50.9 °F - 18.0 °F 27% 30.40 in 10.0 mi NE 5.8 mph - N/A   Clear
3:15 PM 50.7 °F - 16.9 °F 26% 30.40 in 10.0 mi North 8.1 mph - N/A   Clear
3:35 PM 50.7 °F - 14.9 °F 24% 30.40 in 10.0 mi NE 4.6 mph - N/A   Clear
3:55 PM 50.4 °F - 14.5 °F 24% 30.40 in 10.0 mi NNE 5.8 mph - N/A   Clear
4:15 PM 50.0 °F - 13.5 °F 23% 30.40 in 10.0 mi NNW 5.8 mph - N/A   Clear
4:35 PM 49.5 °F - 14.2 °F 24% 30.40 in 10.0 mi North 4.6 mph - N/A   Clear
4:55 PM 48.0 °F - 14.7 °F 26% 30.40 in 10.0 mi NE 3.5 mph - N/A   Clear
5:15 PM 45.9 °F 43.6 °F 14.4 °F 28% 30.41 in 10.0 mi NNE 4.6 mph - N/A   Clear
5:35 PM 44.4 °F 42.0 °F 13.5 °F 29% 30.41 in 10.0 mi NE 4.6 mph - N/A   Clear
5:55 PM 43.3 °F 41.7 °F 13.3 °F 30% 30.42 in 10.0 mi ENE 3.5 mph - N/A   Clear
6:15 PM 43.3 °F - 13.3 °F 30% 30.43 in 10.0 mi Calm Calm - N/A   Clear
6:35 PM 39.0 °F - 12.7 °F 34% 30.43 in 10.0 mi Calm Calm - N/A   Clear
7:15 PM 39.4 °F 36.1 °F 14.2 °F 36% 30.45 in 10.0 mi WNW 4.6 mph - N/A   Clear
7:35 PM 36.0 °F 33.3 °F 13.8 °F 40% 30.46 in 10.0 mi WNW 3.5 mph - N/A   Clear
7:55 PM 36.0 °F 33.3 °F 13.8 °F 40% 30.46 in 10.0 mi WNW 3.5 mph - N/A   Clear
8:15 PM 34.9 °F 32.0 °F 14.2 °F 43% 30.47 in 10.0 mi WNW 3.5 mph - N/A   Clear
8:35 PM 34.9 °F - 14.2 °F 43% 30.47 in 10.0 mi Calm Calm - N/A   Clear
8:55 PM 35.2 °F - 14.0 °F 42% 30.47 in 10.0 mi Calm Calm - N/A   Clear
9:15 PM 33.6 °F 28.4 °F 13.8 °F 44% 30.47 in 10.0 mi ENE 5.8 mph - N/A   Clear
9:35 PM 33.1 °F - 14.0 °F 46% 30.47 in 10.0 mi Calm Calm - N/A   Clear
9:55 PM 33.4 °F 29.1 °F 14.2 °F 45% 30.47 in 10.0 mi NW 4.6 mph - N/A   Clear
10:15 PM 32.2 °F 26.7 °F 14.5 °F 48% 30.47 in 10.0 mi WNW 5.8 mph - N/A   Clear
10:35 PM 31.6 °F 23.7 °F 14.9 °F 50% 30.47 in 10.0 mi NW 9.2 mph - N/A   Clear
10:55 PM 30.9 °F 23.5 °F 14.4 °F 50% 30.48 in 10.0 mi WNW 8.1 mph - N/A   Clear
11:15 PM 31.6 °F 24.4 °F 15.6 °F 52% 30.48 in 10.0 mi NW 8.1 mph - N/A   Clear
11:35 PM 32.5 °F 29.3 °F 17.1 °F 53% 30.48 in 10.0 mi NNE 3.5 mph - N/A   Clear